GW2622 Weather Reports


time (UTC)temp
F
wind
direction
speed
knots
gust
knots
rain 1hr
in
rain 24hr
in
rain mn
in
humidity
%
barometer
mb
20260902161604 88 179 4.3 8.7 0.00 0.00 0.00 63 1014.4
20260902161100 88 249 2.6 6.1 0.00 0.00 0.00 65 1014.3
20260902160555 88 198 5.2 7.0 0.00 0.00 0.00 63 1014.3
20260902160051 87 162 4.3 6.1 0.00 0.00 0.00 64 1014.6
20260902155544 88 212 3.5 6.1 0.00 0.00 0.00 65 1014.5
20260902155042 87 248 0.9 6.1 0.00 0.00 0.00 65 1014.4
20260902154538 88 215 3.5 5.2 0.00 0.00 0.00 65 1014.4
20260902154032 87 206 2.6 5.2 0.00 0.00 0.00 66 1014.5
20260902153531 87 144 3.5 5.2 0.00 0.00 0.00 67 1014.7
20260902153027 86 202 3.5 5.2 0.00 0.00 0.00 68 1014.6
20260902152523 86 162 3.5 6.1 0.00 0.00 0.00 68 1014.5
20260902152018 87 187 2.6 2.6 0.00 0.00 0.00 68 1014.7
20260902151514 86 167 2.6 6.1 0.00 0.00 0.00 70 1014.5
20260902151013 85 195 2.6 4.3 0.00 0.00 0.00 70 1014.4
20260902150510 85 147 2.6 4.3 0.00 0.00 0.00 71 1014.5
20260902150009 84 198 2.6 5.2 0.00 0.00 0.00 72 1014.4
20260902145504 84 159 2.6 6.1 0.00 0.00 0.00 73 1014.4
20260902144959 84 215 2.6 5.2 0.00 0.00 0.00 73 1014.5
20260902144456 83 190 2.6 2.6 0.00 0.00 0.00 74 1014.4
20260902143956 83 166 4.3 6.1 0.00 0.00 0.00 75 1014.5
20260902143451 82 172 3.5 6.1 0.00 0.00 0.00 75 1014.3
20260902142946 82 177 3.5 5.2 0.00 0.00 0.00 75 1014.4
20260902142443 82 203 3.5 5.2 0.00 0.00 0.00 76 1014.5
20260902141937 81 275 0.9 6.1 0.00 0.00 0.00 77 1014.7
20260902141433 81 152 5.2 7.0 0.00 0.00 0.00 77 1014.5
20260902140932 81 150 1.7 5.2 0.00 0.00 0.00 78 1014.7
20260902140428 81 227 1.7 4.3 0.00 0.00 0.00 78 1014.5
20260902135927 80 154 3.5 6.1 0.00 0.00 0.00 80 1014.6
20260902135423 79 194 2.6 5.2 0.00 0.00 0.00 80 1014.5
20260902134922 80 178 4.3 5.2 0.00 0.00 0.00 79 1014.5
20260902134418 79 218 1.7 5.2 0.00 0.00 0.00 79 1014.5
20260902133913 78 259 0.9 2.6 0.00 0.00 0.00 80 1014.6
20260902133412 78 211 1.7 4.3 0.00 0.00 0.00 80 1014.6
20260902132907 78 177 2.6 5.2 0.00 0.00 0.00 81 1014.8
20260902132402 77 181 2.6 4.3 0.00 0.00 0.00 82 1014.6
20260902131857 78 182 2.6 4.3 0.00 0.00 0.00 82 1014.6
20260902131355 78 256 0.9 0.9 0.00 0.00 0.00 79 1014.7
20260902130853 78 273 0.0 1.7 0.00 0.00 0.00 81 1014.8
20260902130350 77 174 4.3 4.3 0.00 0.00 0.00 83 1014.9
20260902125844 75 180 2.6 4.3 0.00 0.00 0.00 85 1014.8
20260902125341 75 204 1.7 1.7 0.00 0.00 0.00 85 1015.0
20260902124836 75 194 1.7 2.6 0.00 0.00 0.00 84 1015.0
20260902124332 75 259 0.9 1.7 0.00 0.00 0.00 85 1015.1
20260902123827 74 281 0.0 0.0 0.00 0.00 0.00 86 1015.2
20260902123323 74 281 0.0 0.9 0.00 0.00 0.00 87 1015.0
20260902122822 73 258 0.9 2.6 0.00 0.00 0.00 88 1014.8
20260902122318 73 198 1.7 1.7 0.00 0.00 0.00 89 1015.0
20260902121817 72 244 1.7 1.7 0.00 0.00 0.00 90 1015.0
20260902121313 72 319 0.0 0.0 0.00 0.00 0.00 90 1014.9
20260902120808 73 333 2.6 2.6 0.00 0.00 0.00 89 1015.2
20260902120305 73 246 0.9 2.6 0.00 0.00 0.00 87 1014.8
20260902115759 72 270 0.9 1.7 0.00 0.00 0.00 89 1014.8
20260902115256 73 325 1.7 1.7 0.00 0.00 0.00 89 1014.9
20260902114752 73 199 1.7 2.6 0.00 0.00 0.00 86 1014.8
20260902114248 74 296 0.0 0.9 0.00 0.00 0.00 87 1014.8
20260902113747 74 313 0.0 0.0 0.00 0.00 0.00 85 1014.8
20260902113243 75 285 0.0 0.0 0.00 0.00 0.00 83 1014.8
20260902112742 74 256 0.9 1.7 0.00 0.00 0.00 85 1014.8
20260902112239 74 336 0.9 1.7 0.00 0.00 0.00 86 1014.8
20260902111734 74 347 0.0 0.9 0.00 0.00 0.00 85 1014.6
20260902111231 75 290 0.0 0.9 0.00 0.00 0.00 83 1014.8
20260902110726 75 275 0.9 1.7 0.00 0.00 0.00 84 1014.6
20260902110222 75 312 0.0 0.9 0.00 0.00 0.00 83 1014.8
20260902105721 75 311 0.0 0.0 0.00 0.00 0.00 81 1014.8
20260902105211 75 316 0.0 0.9 0.00 0.00 0.00 82 1014.9
20260902104706 76 301 0.0 0.0 0.00 0.00 0.00 81 1014.8
20260902104202 76 276 1.7 1.7 0.00 0.00 0.00 79 1014.7
20260902103655 76 308 0.0 5.2 0.00 0.00 0.00 79 1015.0
20260902103151 76 35 4.3 5.2 0.00 0.00 0.00 81 1015.2
20260902102647 75 296 0.9 2.6 0.00 0.00 0.00 82 1014.7
20260902102144 75 14 5.2 7.8 0.00 0.00 0.00 83 1014.7
20260902101639 75 32 3.5 9.6 0.00 0.00 0.00 83 1014.6
20260902101138 75 341 4.3 6.1 0.00 0.00 0.00 84 1014.6
20260902100633 75 232 2.6 4.3 0.00 0.00 0.00 83 1013.6
20260902100128 75 201 2.6 4.3 0.00 0.00 0.00 83 1013.7
20260902095627 75 206 2.6 4.3 0.00 0.00 0.00 83 1013.6
20260902095127 75 222 2.6 4.3 0.00 0.00 0.00 84 1013.5
20260902094622 75 217 2.6 2.6 0.00 0.00 0.00 83 1013.5
20260902094118 75 200 2.6 4.3 0.00 0.00 0.00 83 1013.5
20260902093612 75 206 3.5 4.3 0.00 0.00 0.00 83 1013.4
20260902093106 75 207 2.6 4.3 0.00 0.00 0.00 83 1013.5
20260902092601 75 229 2.6 4.3 0.00 0.00 0.00 83 1013.4
20260902092056 75 218 2.6 4.3 0.00 0.00 0.00 82 1013.4
20260902091551 75 207 3.5 4.3 0.00 0.00 0.00 82 1013.5
20260902091047 76 190 2.6 2.6 0.00 0.00 0.00 82 1013.4
20260902090542 76 220 1.7 4.3 0.00 0.00 0.00 81 1013.3
20260902090041 76 218 2.6 4.3 0.00 0.00 0.00 81 1013.7
20260902085536 76 230 2.6 5.2 0.00 0.00 0.00 81 1013.4
20260902085031 76 203 2.6 6.1 0.00 0.00 0.00 81 1013.4
20260902084522 76 214 3.5 4.3 0.00 0.00 0.00 81 1013.4
20260902084017 76 197 3.5 4.3 0.00 0.00 0.00 81 1013.5
20260902083512 76 228 2.6 2.6 0.00 0.00 0.00 80 1013.5
20260902083007 76 201 2.6 4.3 0.00 0.00 0.00 80 1013.5
20260902082502 76 182 2.6 4.3 0.00 0.00 0.00 80 1013.3
20260902081958 77 221 1.7 2.6 0.00 0.00 0.00 80 1013.5
20260902081455 77 213 3.5 4.3 0.00 0.00 0.00 79 1013.3
20260902080949 77 216 3.5 4.3 0.00 0.00 0.00 79 1013.6
20260902080445 77 217 2.6 5.2 0.00 0.00 0.00 79 1013.2
20260902075939 77 197 3.5 5.2 0.00 0.00 0.00 78 1013.3
20260902075436 77 188 3.5 5.2 0.00 0.00 0.00 78 1013.5
20260902074931 78 215 2.6 5.2 0.00 0.00 0.00 78 1013.3
20260902074426 78 211 2.6 4.3 0.00 0.00 0.00 77 1013.3
20260902073921 78 219 2.6 4.3 0.00 0.00 0.00 77 1013.2
20260902073417 78 184 3.5 6.1 0.00 0.00 0.00 76 1013.3
20260902072913 78 195 5.2 6.1 0.00 0.00 0.00 76 1013.2
20260902072409 78 214 4.3 5.2 0.00 0.00 0.00 76 1013.1
20260902071905 78 246 2.6 4.3 0.00 0.00 0.00 77 1012.9
20260902071404 78 245 2.6 5.2 0.00 0.00 0.00 77 1013.0
20260902070901 78 216 2.6 4.3 0.00 0.00 0.00 77 1013.1
20260902070356 78 190 3.5 5.2 0.00 0.00 0.00 76 1012.8
20260902065854 78 201 3.5 5.2 0.00 0.00 0.00 76 1012.9
20260902065344 79 157 2.6 4.3 0.00 0.00 0.00 75 1012.8
20260902064839 79 204 2.6 4.3 0.00 0.00 0.00 75 1012.7
20260902064335 78 203 2.6 4.3 0.00 0.00 0.00 76 1012.7
20260902063831 79 223 3.5 5.2 0.00 0.00 0.00 75 1012.8
20260902063330 79 205 3.5 5.2 0.00 0.00 0.00 75 1012.7
20260902062825 79 218 2.6 4.3 0.00 0.00 0.00 75 1012.7
20260902062320 78 189 2.6 4.3 0.00 0.00 0.00 75 1012.9
20260902061819 79 217 2.6 2.6 0.00 0.00 0.00 75 1012.7
20260902061315 79 188 3.5 5.2 0.00 0.00 0.00 75 1013.0
20260902060811 79 214 2.6 2.6 0.00 0.00 0.00 75 1013.1
20260902060306 79 211 1.7 2.6 0.00 0.00 0.00 76 1013.1
20260902055802 79 228 1.7 4.3 0.00 0.00 0.00 75 1013.0
20260902055258 79 184 2.6 4.3 0.00 0.00 0.00 76 1013.1
20260902054752 79 228 2.6 4.3 0.00 0.00 0.00 76 1013.1
20260902054248 79 221 2.6 2.6 0.00 0.00 0.00 75 1013.3
20260902053744 79 199 3.5 4.3 0.00 0.00 0.00 75 1013.2
20260902053243 79 211 3.5 6.1 0.00 0.00 0.00 75 1013.2
20260902052742 79 234 1.7 4.3 0.00 0.00 0.00 76 1013.2
20260902052232 79 201 2.6 4.3 0.00 0.00 0.00 76 1013.5
20260902051731 79 211 2.6 4.3 0.00 0.00 0.00 77 1013.3
20260902051221 79 242 1.7 1.7 0.00 0.00 0.00 76 1013.2
20260902050715 79 214 1.7 4.3 0.00 0.00 0.00 76 1013.3
20260902050210 79 192 2.6 2.6 0.00 0.00 0.00 76 1013.3
20260902045705 79 215 1.7 2.6 0.00 0.00 0.00 76 1013.4
20260902045201 79 225 2.6 4.3 0.00 0.00 0.00 75 1013.4
20260902044656 80 218 0.9 2.6 0.00 0.00 0.00 75 1013.4
20260902044152 79 177 2.6 4.3 0.00 0.00 0.00 75 1013.5
20260902043647 80 193 2.6 4.3 0.00 0.00 0.00 74 1013.3
20260902043142 80 183 1.7 2.6 0.00 0.00 0.00 74 1013.4
20260902042641 80 203 2.6 2.6 0.00 0.00 0.00 74 1013.3
20260902042136 79 199 1.7 2.6 0.00 0.00 0.00 75 1013.5
20260902041631 80 242 1.7 1.7 0.00 0.00 0.00 76 1013.4
20260902041126 80 217 1.7 1.7 0.00 0.00 0.00 76 1013.6
20260902040625 80 243 1.7 1.7 0.00 0.00 0.00 74 1013.5
20260902040121 81 246 0.9 1.7 0.00 0.00 0.00 73 1013.5
20260902035618 82 234 1.7 2.6 0.00 0.00 0.00 72 1013.4
20260902035113 81 195 1.7 2.6 0.00 0.00 0.00 72 1013.6
20260902034612 81 191 2.6 4.3 0.00 0.00 0.00 72 1013.5
20260902034107 81 206 1.7 4.3 0.00 0.00 0.00 73 1013.4
20260902033606 81 187 2.6 4.3 0.00 0.00 0.00 74 1013.3
20260902033101 80 176 3.5 5.2 0.00 0.00 0.00 75 1013.3
20260902032600 80 195 2.6 4.3 0.00 0.00 0.00 76 1013.3
20260902032055 80 195 2.6 2.6 0.00 0.00 0.00 77 1013.2
20260902031549 80 175 2.6 4.3 0.00 0.00 0.00 77 1013.3
20260902031045 80 171 2.6 4.3 0.00 0.00 0.00 76 1013.1
20260902030540 81 183 2.6 4.3 0.00 0.00 0.00 76 1013.1
20260902030040 81 191 2.6 2.6 0.00 0.00 0.00 75 1013.1
20260902025534 81 175 2.6 2.6 0.00 0.00 0.00 75 1013.2
20260902025029 81 170 1.7 2.6 0.00 0.00 0.00 75 1013.2
20260902024525 81 172 2.6 2.6 0.00 0.00 0.00 74 1013.3
20260902024025 81 185 2.6 2.6 0.00 0.00 0.00 75 1013.1
20260902023521 81 164 2.6 4.3 0.00 0.00 0.00 74 1013.1
20260902023015 82 188 1.7 2.6 0.00 0.00 0.00 74 1013.2
20260902022510 82 179 2.6 2.6 0.00 0.00 0.00 74 1012.9
20260902022005 82 165 1.7 2.6 0.00 0.00 0.00 73 1013.0
20260902021500 82 198 1.7 1.7 0.00 0.00 0.00 72 1013.0
20260902020955 83 200 1.7 2.6 0.00 0.00 0.00 71 1012.7
20260902020451 83 199 2.6 4.3 0.00 0.00 0.00 71 1013.0
20260902015947 83 172 2.6 4.3 0.00 0.00 0.00 70 1012.8
20260902015443 83 182 2.6 2.6 0.00 0.00 0.00 71 1012.6
20260902014938 84 191 1.7 2.6 0.00 0.00 0.00 70 1012.5
20260902014435 84 195 1.7 2.6 0.00 0.00 0.00 70 1012.6
20260902013933 84 191 2.6 2.6 0.00 0.00 0.00 70 1012.5
20260902013429 84 195 1.7 1.7 0.00 0.00 0.00 69 1012.6
20260902012924 84 186 2.6 2.6 0.00 0.00 0.00 69 1012.4
20260902012420 84 185 2.6 2.6 0.00 0.00 0.00 69 1012.3
20260902011916 84 189 1.7 2.6 0.00 0.00 0.00 69 1012.6
20260902011410 85 192 1.7 2.6 0.00 0.00 0.00 69 1012.5
20260902010910 85 231 1.7 2.6 0.00 0.00 0.00 69 1012.3
20260902010405 85 257 1.7 4.3 0.00 0.00 0.00 69 1012.2
20260902005904 85 144 1.7 2.6 0.00 0.00 0.00 69 1012.4
20260902005358 86 227 0.9 2.6 0.00 0.00 0.00 68 1012.2
20260902004854 86 165 2.6 4.3 0.00 0.00 0.00 67 1012.4
20260902004353 86 258 0.9 1.7 0.00 0.00 0.00 68 1012.3
20260902003849 87 201 1.7 1.7 0.00 0.00 0.00 66 1012.4
20260902003344 87 244 1.7 5.2 0.00 0.00 0.00 66 1012.4
20260902002840 88 255 1.7 1.7 0.00 0.00 0.00 65 1012.4
20260902002339 88 198 1.7 2.6 0.00 0.00 0.00 64 1012.4
20260902001835 89 160 2.6 4.3 0.00 0.00 0.00 63 1012.4
20260902001330 89 192 2.6 4.3 0.00 0.00 0.00 62 1012.5
20260902000824 89 258 0.9 2.6 0.00 0.00 0.00 62 1012.7
20260902000324 90 243 2.6 4.3 0.00 0.00 0.00 61 1012.6
20260901235819 90 236 1.7 5.2 0.00 0.00 0.00 61 1012.5
20260901235314 91 192 2.6 2.6 0.00 0.00 0.00 61 1012.6
20260901234813 91 207 3.5 4.3 0.00 0.00 0.00 60 1012.5
20260901234308 92 247 1.7 1.7 0.00 0.00 0.00 60 1012.6
20260901233803 92 222 3.5 6.1 0.00 0.00 0.00 59 1012.6
20260901233253 92 190 1.7 4.3 0.00 0.00 0.00 59 1012.5
20260901232748 93 250 1.7 2.6 0.00 0.00 0.00 59 1012.5
20260901232238 93 215 1.7 4.3 0.00 0.00 0.00 59 1012.4
20260901231734 93 219 2.6 5.2 0.00 0.00 0.00 58 1012.4
20260901231230 94 171 2.6 4.3 0.00 0.00 0.00 57 1012.5
20260901230725 94 176 3.5 4.3 0.00 0.00 0.00 57 1012.4
20260901230219 95 190 2.6 5.2 0.00 0.00 0.00 57 1012.6
20260901225715 95 229 2.6 5.2 0.00 0.00 0.00 56 1012.4
20260901225209 95 249 1.7 2.6 0.00 0.00 0.00 56 1012.7
20260901224705 95 173 3.5 4.3 0.00 0.00 0.00 55 1012.6
20260901224201 95 217 3.5 5.2 0.00 0.00 0.00 55 1012.6
20260901223657 95 264 2.6 4.3 0.00 0.00 0.00 56 1012.7
20260901223151 96 222 4.3 5.2 0.00 0.00 0.00 54 1012.6
20260901222648 96 213 2.6 5.2 0.00 0.00 0.00 55 1012.7
20260901222144 96 233 5.2 5.2 0.00 0.00 0.00 53 1012.7
20260901221639 96 228 5.2 6.1 0.00 0.00 0.00 52 1012.7
20260901221135 96 239 4.3 6.1 0.00 0.00 0.00 52 1012.5
20260901220634 96 216 4.3 6.1 0.00 0.00 0.00 52 1012.8
20260901220134 96 207 4.3 6.1 0.00 0.00 0.00 51 1012.8
20260901215632 96 216 3.5 7.0 0.00 0.00 0.00 51 1012.6
20260901215126 97 245 3.5 5.2 0.00 0.00 0.00 52 1012.8
20260901214624 96 249 3.5 7.0 0.00 0.00 0.00 50 1012.9
20260901214119 97 233 7.8 8.7 0.00 0.00 0.00 49 1012.8
20260901213613 96 207 4.3 7.0 0.00 0.00 0.00 51 1012.8
20260901213108 97 212 3.5 7.0 0.00 0.00 0.00 50 1012.8
20260901212608 97 210 4.3 6.1 0.00 0.00 0.00 49 1012.8
20260901212104 96 167 5.2 7.0 0.00 0.00 0.00 49 1012.8
20260901211558 96 212 6.1 9.6 0.00 0.00 0.00 49 1012.7
20260901211055 96 208 6.1 7.8 0.00 0.00 0.00 49 1012.7
20260901210550 97 192 6.1 8.7 0.00 0.00 0.00 50 1012.9
20260901210046 97 296 3.5 5.2 0.00 0.00 0.00 50 1012.9
20260901205541 97 217 5.2 8.7 0.00 0.00 0.00 49 1013.1
20260901205036 96 230 4.3 7.8 0.00 0.00 0.00 50 1012.9
20260901204532 97 227 5.2 9.6 0.00 0.00 0.00 49 1013.0
20260901204026 96 207 6.1 11.3 0.00 0.00 0.00 50 1013.2
20260901203521 96 216 7.0 8.7 0.00 0.00 0.00 50 1013.1
20260901203017 97 210 3.5 5.2 0.00 0.00 0.00 50 1013.2
20260901202511 96 232 4.3 7.0 0.00 0.00 0.00 49 1013.3
20260901202007 96 210 5.2 9.6 0.00 0.00 0.00 50 1013.4
20260901201502 96 236 3.5 8.7 0.00 0.00 0.00 52 1013.3
20260901201002 96 206 6.1 7.8 0.00 0.00 0.00 50 1013.5
20260901200451 96 242 6.1 8.7 0.00 0.00 0.00 49 1013.4
20260901195950 96 203 5.2 7.8 0.00 0.00 0.00 51 1013.5
20260901195448 96 226 6.1 7.8 0.00 0.00 0.00 52 1013.5
20260901194938 96 232 2.6 6.1 0.00 0.00 0.00 52 1013.5
20260901194432 96 216 4.3 6.1 0.00 0.00 0.00 51 1013.7
20260901193929 95 264 5.2 9.6 0.00 0.00 0.00 50 1013.9
20260901193427 96 172 3.5 8.7 0.00 0.00 0.00 49 1013.9
20260901192922 95 229 4.3 8.7 0.00 0.00 0.00 49 1014.1
20260901192417 96 236 7.0 8.7 0.00 0.00 0.00 51 1014.1
20260901191913 96 200 5.2 7.0 0.00 0.00 0.00 51 1014.1
20260901191408 96 193 6.1 8.7 0.00 0.00 0.00 53 1014.2
20260901190904 96 246 4.3 7.8 0.00 0.00 0.00 50 1014.2
20260901190359 96 181 5.2 7.0 0.00 0.00 0.00 50 1014.2
20260901185857 96 212 5.2 7.8 0.00 0.00 0.00 53 1014.4
20260901185356 96 284 2.6 4.3 0.00 0.00 0.00 52 1014.0
20260901184852 95 243 2.6 6.1 0.00 0.00 0.00 51 1014.4
20260901184347 96 209 5.2 6.1 0.00 0.00 0.00 51 1014.3
20260901183842 95 260 2.6 4.3 0.00 0.00 0.00 52 1014.5
20260901183341 94 219 4.3 7.0 0.00 0.00 0.00 55 1014.4
20260901182837 94 216 5.2 6.1 0.00 0.00 0.00 53 1014.6
20260901182332 94 207 3.5 6.1 0.00 0.00 0.00 54 1014.6
20260901181827 94 234 5.2 6.1 0.00 0.00 0.00 53 1014.6
20260901181321 94 265 4.3 5.2 0.00 0.00 0.00 53 1014.8
20260901180815 95 274 1.7 4.3 0.00 0.00 0.00 54 1014.8
20260901180314 94 254 1.7 5.2 0.00 0.00 0.00 56 1014.8
20260901175814 94 224 4.3 6.1 0.00 0.00 0.00 54 1014.8
20260901175308 93 224 2.6 4.3 0.00 0.00 0.00 55 1014.8
20260901174803 93 247 2.6 6.1 0.00 0.00 0.00 55 1014.9
20260901174259 93 196 7.0 7.8 0.00 0.00 0.00 55 1014.9
20260901173754 92 208 2.6 5.2 0.00 0.00 0.00 57 1014.9
20260901173249 93 218 2.6 5.2 0.00 0.00 0.00 56 1014.9
20260901172746 92 273 2.6 5.2 0.00 0.00 0.00 56 1014.9
20260901172244 93 215 4.3 6.1 0.00 0.00 0.00 55 1014.8
20260901171743 91 230 3.5 4.3 0.00 0.00 0.00 56 1015.0
20260901171242 91 264 1.7 7.8 0.00 0.00 0.00 55 1015.0
20260901170741 91 246 3.5 6.1 0.00 0.00 0.00 57 1015.0
20260901170236 92 208 5.2 7.0 0.00 0.00 0.00 56 1015.0
20260901165734 91 215 3.5 6.1 0.00 0.00 0.00 58 1015.1
20260901165229 91 224 3.5 6.1 0.00 0.00 0.00 61 1015.1
20260901164726 91 256 4.3 7.0 0.00 0.00 0.00 58 1015.2
20260901164221 91 214 3.5 5.2 0.00 0.00 0.00 59 1015.1
20260901163716 90 258 2.6 6.1 0.00 0.00 0.00 61 1015.0
20260901163215 90 203 3.5 4.3 0.00 0.00 0.00 62 1015.1
20260901162710 90 213 3.5 5.2 0.00 0.00 0.00 62 1015.1
20260901162210 89 265 4.3 6.1 0.00 0.00 0.00 62 1015.2